sat.trackr.live / text

‹ back to catalog

TRANSPORTER-15 OBJECT DD

NORAD 66765 · 2025-276DD

PAYLOAD ACTIVE UNKNOWN

§ Identity

Operator
Country
TBD
Launch date
2025-11-28
Launch site
AFWTR
Launch vehicle
Mass (kg)
RCS (m²)

External: N2YO · Heavens-Above · Gunter

§ Orbital elements

Epoch: 2026-05-24T22:41:21.568992Z

Period
94.55 min
Inclination
97.4218°
Eccentricity
0.0001557
Mean motion
15.23064751 rev/d
Perigee alt
495.5 km
Apogee alt
497.7 km
Semi-major
6,874.7 km
B*
3.9650e-4
RAAN
219.5472°
Arg perigee
101.7372°
Mean anomaly
258.4040°
Rev number
2,693

§ Raw data

TRANSPORTER-15 OBJECT DD1 66765U 25276DD  26144.94538853  .00009275  00000+0  39650-3 0  99922 66765  97.4218 219.5472 0001557 101.7372 258.4040 15.23064751 26939

JSON: /api/v1/satellites/66765 · /tle

For live sub-satellite position, see the globe view (requires WebGL).

§ Visibility from observer

Set your observer location to see the next 7 days of passes ≥ 10°. The values pass through the URL so the page stays shareable.

No JS? Fill the form by hand. The geolocation button needs JavaScript.